Time,TemperatureF,DewpointF,PressureIn,WindDirection,WindDirectionDegrees,WindSpeedMPH,WindSpeedGustMPH,Humidity,HourlyPrecipIn,Conditions,Clouds,dailyrainin,SoftwareType,DateUTC
2013-03-24 00:03:00,33.0,18.0,30.05,NW,316,1.0,4.0,54,-99.99,,,-99.99,,2013-03-24 04:03:00,
2013-03-24 00:13:00,33.0,18.0,30.05,NW,316,1.0,4.0,54,-99.99,,,-99.99,,2013-03-24 04:13:00,
2013-03-24 00:23:00,33.0,18.0,30.04,NNE,15,2.0,6.0,54,-99.99,,,-99.99,,2013-03-24 04:23:00,
2013-03-24 00:33:00,33.0,19.0,30.04,NNW,333,3.0,8.0,55,-99.99,,,-99.99,,2013-03-24 04:33:00,
2013-03-24 00:43:00,33.0,19.0,30.04,NNW,333,3.0,8.0,55,-99.99,,,-99.99,,2013-03-24 04:43:00,
2013-03-24 00:53:00,33.0,19.0,30.05,West,267,1.0,5.0,55,-99.99,,,-99.99,,2013-03-24 04:53:00,
2013-03-24 01:03:00,32.0,18.0,30.05,NW,318,0.0,5.0,56,-99.99,,,-99.99,,2013-03-24 05:03:00,
2013-03-24 01:13:00,32.0,18.0,30.05,NW,318,0.0,5.0,56,-99.99,,,-99.99,,2013-03-24 05:13:00,
2013-03-24 01:23:00,32.0,19.0,30.06,WNW,302,1.0,3.0,57,-99.99,,,-99.99,,2013-03-24 05:23:00,
2013-03-24 01:32:00,31.0,18.0,30.05,NW,304,0.0,3.0,58,-99.99,,,-99.99,,2013-03-24 05:32:00,
2013-03-24 01:43:00,31.0,18.0,30.05,NW,304,0.0,3.0,58,-99.99,,,-99.99,,2013-03-24 05:43:00,
2013-03-24 01:52:00,31.0,18.0,30.06,WNW,302,1.0,2.0,59,-99.99,,,-99.99,,2013-03-24 05:52:00,
2013-03-24 02:02:00,31.0,18.0,30.05,WNW,302,1.0,2.0,59,-99.99,,,-99.99,,2013-03-24 06:02:00,
2013-03-24 02:12:00,31.0,18.0,30.05,WNW,302,1.0,2.0,59,-99.99,,,-99.99,,2013-03-24 06:12:00,
2013-03-24 02:22:00,31.0,19.0,30.05,WNW,302,0.0,2.0,61,-99.99,,,-99.99,,2013-03-24 06:22:00,
2013-03-24 02:32:00,30.0,19.0,30.04,NW,306,0.0,2.0,64,-99.99,,,-99.99,,2013-03-24 06:32:00,
2013-03-24 02:42:00,30.0,19.0,30.04,NW,306,0.0,2.0,64,-99.99,,,-99.99,,2013-03-24 06:42:00,
2013-03-24 02:52:00,30.0,19.0,30.04,NW,316,1.0,2.0,63,-99.99,,,-99.99,,2013-03-24 06:52:00,
2013-03-24 03:02:00,30.0,19.0,30.04,NW,316,1.0,3.0,64,-99.99,,,-99.99,,2013-03-24 07:02:00,
2013-03-24 03:12:00,30.0,19.0,30.04,NW,316,1.0,3.0,64,-99.99,,,-99.99,,2013-03-24 07:12:00,
2013-03-24 03:22:00,30.0,20.0,30.03,SW,221,0.0,2.0,65,-99.99,,,-99.99,,2013-03-24 07:22:00,
2013-03-24 03:32:00,30.0,20.0,30.01,NW,314,0.0,2.0,67,-99.99,,,-99.99,,2013-03-24 07:32:00,
2013-03-24 03:42:00,30.0,20.0,30.01,NW,314,0.0,2.0,67,-99.99,,,-99.99,,2013-03-24 07:42:00,
2013-03-24 03:52:00,30.0,20.0,30.01,West,278,0.0,2.0,66,-99.99,,,-99.99,,2013-03-24 07:52:00,
2013-03-24 04:03:00,29.0,19.0,30.01,West,280,0.0,1.0,67,-99.99,,,-99.99,,2013-03-24 08:03:00,
2013-03-24 04:12:00,29.0,19.0,30.01,West,280,0.0,1.0,67,-99.99,,,-99.99,,2013-03-24 08:12:00,
2013-03-24 04:22:00,29.0,20.0,30.01,WNW,300,0.0,3.0,68,-99.99,,,-99.99,,2013-03-24 08:22:00,
2013-03-24 04:32:00,30.0,21.0,30.01,NW,318,1.0,4.0,68,-99.99,,,-99.99,,2013-03-24 08:32:00,
2013-03-24 04:42:00,30.0,21.0,30.01,NW,318,1.0,4.0,68,-99.99,,,-99.99,,2013-03-24 08:42:00,
2013-03-24 04:52:00,30.0,21.0,30.01,NW,311,2.0,4.0,68,-99.99,,,-99.99,,2013-03-24 08:52:00,
2013-03-24 05:02:00,30.0,21.0,30.02,WNW,297,2.0,3.0,68,-99.99,,,-99.99,,2013-03-24 09:02:00,
2013-03-24 05:12:00,30.0,21.0,30.02,WNW,297,2.0,3.0,68,-99.99,,,-99.99,,2013-03-24 09:12:00,
2013-03-24 05:22:00,29.0,20.0,30.03,NW,318,1.0,3.0,69,-99.99,,,-99.99,,2013-03-24 09:22:00,
2013-03-24 05:33:00,29.0,20.0,30.03,NW,318,3.0,5.0,70,-99.99,,,-99.99,,2013-03-24 09:33:00,
2013-03-24 05:42:00,29.0,20.0,30.03,NW,318,3.0,5.0,70,-99.99,,,-99.99,,2013-03-24 09:42:00,
2013-03-24 05:53:00,29.0,20.0,30.03,NW,318,2.0,4.0,70,-99.99,,,-99.99,,2013-03-24 09:53:00,
2013-03-24 06:03:00,29.0,20.0,30.03,NW,315,2.0,3.0,70,-99.99,,,-99.99,,2013-03-24 10:03:00,
2013-03-24 06:12:00,29.0,20.0,30.03,NW,315,2.0,3.0,70,-99.99,,,-99.99,,2013-03-24 10:12:00,
2013-03-24 06:23:00,29.0,20.0,30.04,NW,306,2.0,3.0,69,-99.99,,,-99.99,,2013-03-24 10:23:00,
2013-03-24 06:33:00,29.0,20.0,30.05,NW,314,2.0,3.0,69,-99.99,,,-99.99,,2013-03-24 10:33:00,
2013-03-24 06:42:00,29.0,20.0,30.05,NW,314,2.0,3.0,69,-99.99,,,-99.99,,2013-03-24 10:42:00,
2013-03-24 06:52:00,29.0,20.0,30.06,WNW,300,1.0,3.0,68,-99.99,,,-99.99,,2013-03-24 10:52:00,
2013-03-24 07:03:00,28.0,19.0,30.05,WNW,297,0.0,1.0,69,-99.99,,,-99.99,,2013-03-24 11:03:00,
2013-03-24 07:12:00,28.0,19.0,30.05,WNW,297,0.0,1.0,69,-99.99,,,-99.99,,2013-03-24 11:12:00,
2013-03-24 07:22:00,28.0,19.0,30.05,WNW,284,0.0,2.0,69,-99.99,,,-99.99,,2013-03-24 11:22:00,
2013-03-24 07:33:00,28.0,19.0,30.05,WNW,298,0.0,1.0,69,-99.99,,,-99.99,,2013-03-24 11:33:00,
2013-03-24 07:42:00,28.0,19.0,30.05,WNW,298,0.0,1.0,69,-99.99,,,-99.99,,2013-03-24 11:42:00,
2013-03-24 07:52:00,28.0,19.0,30.04,WNW,297,0.0,1.0,69,-99.99,,,-99.99,,2013-03-24 11:52:00,
2013-03-24 08:03:00,28.0,19.0,30.05,WNW,297,0.0,1.0,69,-99.99,,,-99.99,,2013-03-24 12:03:00,
2013-03-24 08:12:00,28.0,19.0,30.05,WNW,297,0.0,1.0,69,-99.99,,,-99.99,,2013-03-24 12:12:00,
2013-03-24 08:22:00,29.0,20.0,30.06,WNW,287,1.0,2.0,69,-99.99,,,-99.99,,2013-03-24 12:22:00,
2013-03-24 08:32:00,30.0,21.0,30.07,WNW,293,2.0,4.0,68,-99.99,,,-99.99,,2013-03-24 12:32:00,
2013-03-24 08:42:00,30.0,21.0,30.07,WNW,293,2.0,4.0,68,-99.99,,,-99.99,,2013-03-24 12:42:00,
2013-03-24 08:52:00,31.0,21.0,30.07,WNW,290,2.0,5.0,66,-99.99,,,-99.99,,2013-03-24 12:52:00,
2013-03-24 09:02:00,32.0,21.0,30.07,NNW,338,3.0,6.0,64,-99.99,,,-99.99,,2013-03-24 13:02:00,
2013-03-24 09:13:00,32.0,21.0,30.07,NNW,338,3.0,6.0,64,-99.99,,,-99.99,,2013-03-24 13:13:00,
2013-03-24 09:22:00,33.0,22.0,30.07,NNE,23,2.0,4.0,63,-99.99,,,-99.99,,2013-03-24 13:22:00,
2013-03-24 09:32:00,34.0,22.0,30.07,NNW,334,3.0,6.0,60,-99.99,,,-99.99,,2013-03-24 13:32:00,
2013-03-24 09:42:00,34.0,22.0,30.07,NNW,334,3.0,6.0,60,-99.99,,,-99.99,,2013-03-24 13:42:00,
2013-03-24 09:52:00,35.0,22.0,30.07,NW,325,2.0,4.0,58,-99.99,,,-99.99,,2013-03-24 13:52:00,
2013-03-24 10:02:00,35.0,22.0,30.06,NW,318,3.0,6.0,58,-99.99,,,-99.99,,2013-03-24 14:02:00,
2013-03-24 10:12:00,35.0,22.0,30.06,NW,318,3.0,6.0,58,-99.99,,,-99.99,,2013-03-24 14:12:00,
2013-03-24 10:22:00,36.0,22.0,30.07,NNE,33,3.0,8.0,56,-99.99,,,-99.99,,2013-03-24 14:22:00,
2013-03-24 10:32:00,36.0,22.0,30.06,East,98,4.0,9.0,57,-99.99,,,-99.99,,2013-03-24 14:32:00,
2013-03-24 10:42:00,36.0,22.0,30.06,East,98,4.0,9.0,57,-99.99,,,-99.99,,2013-03-24 14:42:00,
2013-03-24 10:53:00,37.0,22.0,30.05,NNW,328,3.0,11.0,54,-99.99,,,-99.99,,2013-03-24 14:53:00,
2013-03-24 11:02:00,38.0,22.0,30.03,NNW,339,4.0,9.0,52,-99.99,,,-99.99,,2013-03-24 15:02:00,
2013-03-24 11:12:00,38.0,22.0,30.03,NNW,339,4.0,9.0,52,-99.99,,,-99.99,,2013-03-24 15:12:00,
2013-03-24 11:22:00,38.0,22.0,30.03,NNE,25,4.0,8.0,52,-99.99,,,-99.99,,2013-03-24 15:22:00,
2013-03-24 11:33:00,38.0,22.0,30.03,WSW,245,4.0,10.0,52,-99.99,,,-99.99,,2013-03-24 15:33:00,
2013-03-24 11:43:00,38.0,22.0,30.03,WSW,245,4.0,10.0,52,-99.99,,,-99.99,,2013-03-24 15:43:00,
2013-03-24 11:53:00,40.0,23.0,30.03,NNE,30,3.0,7.0,51,-99.99,,,-99.99,,2013-03-24 15:53:00,
2013-03-24 12:03:00,40.0,23.0,30.02,NNW,340,4.0,8.0,51,-99.99,,,-99.99,,2013-03-24 16:03:00,
2013-03-24 12:13:00,40.0,23.0,30.02,NNW,340,4.0,8.0,51,-99.99,,,-99.99,,2013-03-24 16:13:00,
2013-03-24 12:23:00,40.0,23.0,30.01,NW,315,5.0,10.0,50,-99.99,,,-99.99,,2013-03-24 16:23:00,
2013-03-24 12:33:00,41.0,24.0,30.00,NW,314,4.0,9.0,50,-99.99,,,-99.99,,2013-03-24 16:33:00,
2013-03-24 12:42:00,41.0,24.0,30.00,NW,314,4.0,9.0,50,-99.99,,,-99.99,,2013-03-24 16:42:00,
2013-03-24 12:52:00,41.0,23.0,29.99,NW,311,4.0,8.0,49,-99.99,,,-99.99,,2013-03-24 16:52:00,
2013-03-24 13:02:00,41.0,23.0,29.99,NW,311,4.0,8.0,49,-99.99,,,-99.99,,2013-03-24 17:02:00,
2013-03-24 13:12:00,41.0,23.0,29.99,NW,311,4.0,8.0,49,-99.99,,,-99.99,,2013-03-24 17:12:00,
2013-03-24 13:23:00,42.0,24.0,29.98,NE,47,3.0,9.0,48,-99.99,,,-99.99,,2013-03-24 17:23:00,
2013-03-24 13:33:00,42.0,23.0,29.96,NNW,327,4.0,8.0,47,-99.99,,,-99.99,,2013-03-24 17:33:00,
2013-03-24 13:43:00,42.0,23.0,29.96,NNW,327,4.0,8.0,47,-99.99,,,-99.99,,2013-03-24 17:43:00,
2013-03-24 13:53:00,42.0,23.0,29.96,NNE,30,4.0,9.0,47,-99.99,,,-99.99,,2013-03-24 17:53:00,
2013-03-24 14:03:00,43.0,25.0,29.98,WNW,297,4.0,12.0,48,-99.99,,,-99.99,,2013-03-24 18:03:00,
2013-03-24 14:12:00,43.0,25.0,29.98,WNW,297,4.0,12.0,48,-99.99,,,-99.99,,2013-03-24 18:12:00,
2013-03-24 14:22:00,43.0,24.0,29.97,NNW,333,4.0,8.0,47,-99.99,,,-99.99,,2013-03-24 18:22:00,
2013-03-24 14:33:00,43.0,23.0,29.97,NNE,30,4.0,8.0,45,-99.99,,,-99.99,,2013-03-24 18:33:00,
2013-03-24 14:43:00,43.0,23.0,29.97,NNE,30,4.0,8.0,45,-99.99,,,-99.99,,2013-03-24 18:43:00,
2013-03-24 14:52:00,43.0,24.0,29.96,NW,311,3.0,7.0,46,-99.99,,,-99.99,,2013-03-24 18:52:00,
2013-03-24 15:02:00,44.0,23.0,29.94,North,359,3.0,8.0,44,-99.99,,,-99.99,,2013-03-24 19:02:00,
2013-03-24 15:12:00,44.0,23.0,29.94,North,359,3.0,8.0,44,-99.99,,,-99.99,,2013-03-24 19:12:00,
2013-03-24 15:22:00,44.0,24.0,29.93,ENE,70,3.0,7.0,45,-99.99,,,-99.99,,2013-03-24 19:22:00,
2013-03-24 15:32:00,45.0,24.0,29.92,NW,325,2.0,5.0,44,-99.99,,,-99.99,,2013-03-24 19:32:00,
2013-03-24 15:43:00,45.0,24.0,29.92,NW,325,2.0,5.0,44,-99.99,,,-99.99,,2013-03-24 19:43:00,
2013-03-24 15:53:00,45.0,24.0,29.91,NNE,18,3.0,8.0,44,-99.99,,,-99.99,,2013-03-24 19:53:00,
2013-03-24 16:03:00,45.0,24.0,29.91,NNW,347,2.0,8.0,44,-99.99,,,-99.99,,2013-03-24 20:03:00,
2013-03-24 16:12:00,45.0,24.0,29.91,NNW,347,2.0,8.0,44,-99.99,,,-99.99,,2013-03-24 20:12:00,
2013-03-24 16:22:00,45.0,24.0,29.92,NNW,346,3.0,8.0,44,-99.99,,,-99.99,,2013-03-24 20:22:00,
2013-03-24 16:32:00,45.0,24.0,29.91,SE,145,3.0,8.0,44,-99.99,,,-99.99,,2013-03-24 20:32:00,
2013-03-24 16:43:00,45.0,24.0,29.91,SE,145,3.0,8.0,44,-99.99,,,-99.99,,2013-03-24 20:43:00,
2013-03-24 16:53:00,45.0,24.0,29.90,South,173,2.0,7.0,44,-99.99,,,-99.99,,2013-03-24 20:53:00,
2013-03-24 17:02:00,45.0,24.0,29.90,ENE,61,3.0,8.0,44,-99.99,,,-99.99,,2013-03-24 21:02:00,
2013-03-24 17:12:00,45.0,24.0,29.90,ENE,61,3.0,8.0,44,-99.99,,,-99.99,,2013-03-24 21:12:00,
2013-03-24 17:22:00,44.0,24.0,29.90,ENE,58,3.0,6.0,45,-99.99,,,-99.99,,2013-03-24 21:22:00,
2013-03-24 17:33:00,44.0,24.0,29.89,East,88,3.0,6.0,45,-99.99,,,-99.99,,2013-03-24 21:33:00,
2013-03-24 17:43:00,44.0,24.0,29.89,East,88,3.0,6.0,45,-99.99,,,-99.99,,2013-03-24 21:43:00,
2013-03-24 17:53:00,44.0,25.0,29.89,NW,316,2.0,6.0,46,-99.99,,,-99.99,,2013-03-24 21:53:00,
2013-03-24 18:03:00,44.0,25.0,29.90,East,82,3.0,7.0,46,-99.99,,,-99.99,,2013-03-24 22:03:00,
2013-03-24 18:13:00,44.0,25.0,29.90,East,82,3.0,7.0,46,-99.99,,,-99.99,,2013-03-24 22:13:00,
2013-03-24 18:23:00,44.0,25.0,29.90,ESE,106,2.0,7.0,47,-99.99,,,-99.99,,2013-03-24 22:23:00,
2013-03-24 18:33:00,43.0,24.0,29.90,East,91,1.0,6.0,47,-99.99,,,-99.99,,2013-03-24 22:33:00,
2013-03-24 18:43:00,43.0,24.0,29.90,East,91,1.0,6.0,47,-99.99,,,-99.99,,2013-03-24 22:43:00,
2013-03-24 18:53:00,43.0,24.0,29.90,NE,47,1.0,3.0,47,-99.99,,,-99.99,,2013-03-24 22:53:00,
2013-03-24 19:03:00,43.0,25.0,29.90,NE,41,1.0,3.0,48,-99.99,,,-99.99,,2013-03-24 23:03:00,
2013-03-24 19:12:00,43.0,25.0,29.90,NE,41,1.0,3.0,48,-99.99,,,-99.99,,2013-03-24 23:12:00,
2013-03-24 19:22:00,42.0,23.0,29.90,NE,55,0.0,2.0,47,-99.99,,,-99.99,,2013-03-24 23:22:00,
2013-03-24 19:32:00,42.0,24.0,29.90,NE,56,0.0,0.0,49,-99.99,,,-99.99,,2013-03-24 23:32:00,
2013-03-24 19:42:00,42.0,24.0,29.90,NE,56,0.0,0.0,49,-99.99,,,-99.99,,2013-03-24 23:42:00,
2013-03-24 19:53:00,41.0,23.0,29.90,ENE,58,0.0,1.0,49,-99.99,,,-99.99,,2013-03-24 23:53:00,
2013-03-24 20:02:00,41.0,24.0,29.89,NE,55,0.0,1.0,50,-99.99,,,-99.99,,2013-03-25 00:02:00,
2013-03-24 20:12:00,41.0,24.0,29.89,NE,55,0.0,1.0,50,-99.99,,,-99.99,,2013-03-25 00:12:00,
2013-03-24 20:22:00,40.0,23.0,29.91,NE,55,0.0,1.0,51,-99.99,,,-99.99,,2013-03-25 00:22:00,
2013-03-24 20:32:00,40.0,23.0,29.93,NE,56,0.0,1.0,51,-99.99,,,-99.99,,2013-03-25 00:32:00,
2013-03-24 20:42:00,40.0,23.0,29.93,NE,56,0.0,1.0,51,-99.99,,,-99.99,,2013-03-25 00:42:00,
2013-03-24 20:53:00,40.0,24.0,29.93,NE,55,0.0,0.0,52,-99.99,,,-99.99,,2013-03-25 00:53:00,
2013-03-24 21:02:00,40.0,24.0,29.93,NE,46,0.0,1.0,53,-99.99,,,-99.99,,2013-03-25 01:02:00,
2013-03-24 21:12:00,40.0,24.0,29.93,NE,46,0.0,1.0,53,-99.99,,,-99.99,,2013-03-25 01:12:00,
2013-03-24 21:22:00,40.0,24.0,29.93,NE,51,0.0,2.0,53,-99.99,,,-99.99,,2013-03-25 01:22:00,
2013-03-24 21:32:00,39.0,25.0,29.94,East,101,1.0,3.0,58,-99.99,,,-99.99,,2013-03-25 01:32:00,
2013-03-24 21:42:00,39.0,25.0,29.94,East,101,1.0,3.0,58,-99.99,,,-99.99,,2013-03-25 01:42:00,
2013-03-24 21:53:00,38.0,28.0,29.94,ESE,122,1.0,3.0,68,-99.99,,,-99.99,,2013-03-25 01:53:00,
2013-03-24 22:02:00,37.0,29.0,29.94,ESE,110,1.0,4.0,72,-99.99,,,-99.99,,2013-03-25 02:02:00,
2013-03-24 22:12:00,37.0,29.0,29.94,ESE,110,1.0,4.0,72,-99.99,,,-99.99,,2013-03-25 02:12:00,
2013-03-24 22:22:00,37.0,29.0,29.93,ESE,113,1.0,2.0,73,-99.99,,,-99.99,,2013-03-25 02:22:00,
2013-03-24 22:33:00,36.0,29.0,29.94,ESE,110,0.0,1.0,74,-99.99,,,-99.99,,2013-03-25 02:33:00,
2013-03-24 22:42:00,36.0,29.0,29.94,ESE,110,0.0,1.0,74,-99.99,,,-99.99,,2013-03-25 02:42:00,
2013-03-24 22:52:00,36.0,29.0,29.94,South,174,0.0,1.0,74,-99.99,,,-99.99,,2013-03-25 02:52:00,
2013-03-24 23:02:00,36.0,28.0,29.93,East,85,1.0,5.0,73,-99.99,,,-99.99,,2013-03-25 03:02:00,
2013-03-24 23:13:00,36.0,28.0,29.93,East,85,1.0,5.0,73,-99.99,,,-99.99,,2013-03-25 03:13:00,
2013-03-24 23:23:00,36.0,29.0,29.94,South,186,0.0,6.0,75,-99.99,,,-99.99,,2013-03-25 03:23:00,
2013-03-24 23:34:00,36.0,30.0,29.93,SE,146,1.0,4.0,78,-99.99,,,-99.99,,2013-03-25 03:34:00,
2013-03-24 23:43:00,36.0,30.0,29.93,SE,146,1.0,4.0,78,-99.99,,,-99.99,,2013-03-25 03:43:00,
2013-03-24 23:53:00,35.0,29.0,29.93,SSE,168,0.0,2.0,79,-99.99,,,-99.99,,2013-03-25 03:53:00,